GSAT0212 (PRN E03)

Last updated on Sat Apr 13 2024 01:03:08 GMT+0100 (British Summer Time)

1 41860U 16069B 24103.19294813 .00000030 00000+0 00000+0 0 9999 2 41860 55.0567 123.1401 0004062 312.1617 47.8464 1.70474720 46087
UTC large
Height (km)
Speed (km/s)
/
Latitude / Longitude
Inclination (degrees)
Orbital Period (minutes)
Azimuth
Elevation
Range (km)
Doppler Factor

Next 0 passes for location: London (51.5072 / 0.1276)

Sorry there are no passes over London.